Home > Weather > Turaif > Past weeks

Flag for Saudi Arabia Past Weather in Turaif, Saudi Arabia — Yesterday and Last 2 Weeks

Now
86 °F

Clear.


Feels Like: 83 °F
Forecast: 72 / 97 °F
Wind: 9 mph from West

Location: Turaif

Current Time: Jul 1, 2016 at 10:06:01 PM

Latest Report: Jul 1, 2016 at 9:00 PM


Visibility: 10 mi

Pressure: 29.83 "Hg (27.17 "Hg at 827m altitude)

Humidity: 22%

Dew Point: 43 °F

Location of TuraifLocation

Past Weather in Turaif — Graph

°F

Turaif Temperature Yesterday

Maximum temperature yesterday: 99 °F (at 2:00 PM)
Minimum temperature yesterday: 77 °F (at 2:00 AM)
Average temperature yesterday: 90 °F

High & Low Weather Summary for the Past Weeks

 TemperatureHumidityPressure
High106 °F (Jun 24, 3:00 PM)73% (Jun 29, 4:00 AM)29.92 "Hg (Jun 29, 4:00 AM)
Low66 °F (Jun 17, 5:00 AM)9% (Jun 21, 5:00 PM)29.71 "Hg (Jun 24, 4:00 PM)
Average88 °F25%29.83 "Hg
* Reported Jun 16 9:00 PM — Jul 1 9:00 PM, Turaif, Weather by CustomWeather, © 2016

Note: Actual official high and low records may vary slightly from our data, if they occured in-between our weather recording intervals... More about our weather records

Advertising

Turaif Weather History for the Previous 24 Hours

Scroll right to see more
 ConditionsComfort  
Time TempWeatherWind HumidityBarometerVisibility
9:00 PM
Fri, Jul 1
86 °FClear.9 mph22%29.83 "Hg10 mi
8:00 PM90 °FSunny.13 mph16%29.83 "Hg10 mi
7:00 PM91 °FSunny.16 mph15%29.83 "Hg10 mi
6:00 PM95 °FSunny.17 mph11%29.83 "Hg10 mi
5:00 PM97 °FSunny.12 mph13%29.83 "Hg10 mi
4:00 PM97 °FSunny.9 mph13%29.83 "Hg10 mi
3:00 PM97 °FSunny.9 mph13%29.86 "Hg10 mi
2:00 PM95 °FSunny.9 mph14%29.86 "Hg10 mi
1:00 PM93 °FSunny.9 mph16%29.89 "Hg10 mi
12:00 PM91 °FSunny.9 mph17%29.89 "Hg10 mi
11:00 AM88 °FSunny.9 mph21%29.92 "Hg10 mi
10:00 AM86 °FSunny.7 mph24%29.92 "Hg10 mi
9:00 AM81 °FSunny.7 mph32%29.92 "Hg10 mi
8:00 AM77 °FSunny.7 mph36%29.92 "Hg10 mi
7:00 AM73 °FSunny.6 mph41%29.89 "Hg10 mi
6:00 AM72 °FClear.2 mph38%29.89 "Hg10 mi
5:00 AM72 °FClear.No wind38%29.89 "Hg10 mi
4:00 AM73 °FClear.3 mph33%29.89 "Hg10 mi
3:00 AM75 °FClear.7 mph36%29.92 "Hg10 mi
2:00 AM77 °FClear.8 mph34%29.92 "Hg10 mi
1:00 AM79 °FClear.9 mph32%29.92 "Hg10 mi
12:00 AM81 °FClear.10 mph30%29.92 "Hg10 mi
11:00 PM
Thu, Jun 30
81 °FClear.7 mph28%29.92 "Hg10 mi
10:00 PM84 °FClear.8 mph25%29.92 "Hg10 mi
Weather by CustomWeather, © 2016

See weather overviewHow to use our weather pages